Location: Miller
(40.8333°S, 175.9500°E)
Time: 09:45:27
(UTC+00:00)

Daily predictions for brighter satellites

Satellite Brightness Start Highest point End
(mag) Time Altitude Azimuth Time Altitude Azimuth Time Altitude Azimuth
SJ 16-02 3.9 12:21:41 10° SSW 12:22:56 19° S 12:22:56 19° S
Cosmos 2369 Rocket 3.6 12:24:21 10° SSW 12:27:26 32° SW 12:27:26 32° SW
USA 281 4.3 12:23:57 10° SE 12:28:18 33° ESE 12:28:18 33° ESE
Cosmos 1943 4.3 12:37:53 41° S 12:37:53 41° S 12:41:44 10° SSE
ACS3 Solar Sail 3.1 12:42:16 29° ESE 12:42:16 29° ESE 12:47:13 10° S
USA 238 DEB 4.3 12:41:02 10° SW 12:45:28 44° SW 12:45:28 44° SW
USA 238 4.3 12:41:10 10° SW 12:45:36 45° SW 12:45:36 45° SW
ADEOS II 4.2 13:04:58 19° ESE 13:05:44 19° ESE 13:09:24 10° SSE
IDEFIX/ARIANE 42P 3.9 13:13:32 35° SSW 13:13:32 35° SSW 13:16:31 10° SSW
Resurs 1-4 Rocket 3.5 13:14:58 34° ESE 13:14:58 34° ESE 13:19:21 10° S
Cosmos 1833 Rocket 4.1 13:28:25 30° ESE 13:28:25 30° ESE 13:32:06 10° SE
USA 59 Rocket 1.6 13:40:40 10° SW 13:50:34 88° ESE 13:52:12 63° NE
Cosmos 1452 Rocket 4.3 13:54:35 47° S 13:54:35 47° S 13:58:27 10° SSE
ADEOS Rocket 3.1 13:53:52 77° ESE 13:53:52 77° ESE 14:00:36 10° S
CZ-3 Stage 3 4.2 14:01:34 29° NE 14:01:34 29° NE 14:12:47 10° E
ALOS 3.4 14:04:38 41° S 14:04:38 41° S 14:07:45 10° S
Cosmos 2154 Rocket 3.9 14:00:52 10° S 14:07:15 85° ESE 14:07:15 85° ESE
CZ-2D R/B 2.6 14:11:46 54° SSW 14:11:46 54° SSW 14:15:49 10° SSW
H-2A R/B 2.6 14:11:45 51° ESE 14:11:45 51° ESE 14:16:20 10° S
USA 281 3.8 14:08:22 10° S 14:14:31 42° WSW 14:15:10 41° WSW
CZ-2C R/B 3.3 14:10:31 10° S 14:14:46 45° SW 14:14:46 45° SW
Cosmos 2082 Rocket 4.2 14:14:45 16° ENE 14:16:13 18° E 14:19:52 10° ESE
Envisat 3.7 14:18:23 47° SSW 14:18:23 47° SSW 14:22:06 10° SSW
H-2A R/B 3.2 14:20:08 40° ESE 14:20:08 40° ESE 14:23:54 10° S
ACS3 Solar Sail 2.6 14:26:02 36° WSW 14:26:02 36° WSW 14:30:11 10° SSW
Meteor 1-13 Rocket 4.1 14:26:52 82° SSE 14:26:52 82° SSE 14:32:12 10° S
Cosmos 1633 Rocket 4.0 14:28:08 10° S 14:31:17 45° S 14:31:17 45° S
Cosmos 1992 Rocket 4.0 14:33:59 78° SSE 14:33:59 78° SSE 14:38:54 10° SSE
Meteor 1-15 Rocket 4.3 14:30:52 10° S 14:36:43 78° E 14:37:36 64° NE
Cosmos 2074 Rocket 4.4 14:31:27 10° SSW 14:37:03 47° WSW 14:37:03 47° WSW
AQUA 4.1 14:40:42 58° E 14:41:03 61° ESE 14:45:46 10° S
USA 32 4.5 14:36:27 10° S 14:41:42 58° E 14:42:47 48° NE
Cosmos 2184 Rocket 4.5 14:36:19 10° SSW 14:41:47 44° WSW 14:41:47 44° WSW
ADEOS II 2.5 14:45:48 49° WSW 14:45:48 49° WSW 14:50:01 10° SSW
Cosmos 1340 Rocket 3.8 14:46:19 10° S 14:49:26 41° SE 14:49:26 41° SE
Cosmos 1610 Rocket 4.4 14:44:25 10° SSW 14:50:33 64° W 14:50:56 62° WNW
ARGOS 3.7 14:48:04 28° NE 14:50:47 57° ESE 14:56:11 10° S
Okean 2 4.1 14:53:30 47° ESE 14:53:30 47° ESE 14:57:00 10° SSE
Resurs 1-4 Rocket 3.5 14:56:00 25° WSW 14:56:00 25° WSW 14:58:57 10° SW
Meteor 1-21 4.2 15:00:34 62° NNW 15:01:36 82° W 15:07:27 10° S
Cosmos 2341 Rocket 4.1 14:57:44 10° S 15:04:14 81° E 15:07:37 30° NNE
ATLAS CENTAUR R/B 3.5 15:09:25 10° SSW 15:09:25 10° SSW 15:09:32 10° S
Cosmos 1980 Rocket 2.9 15:02:44 10° SSW 15:08:21 53° ESE 15:13:51 10° NE
Cosmos 1833 Rocket 3.6 15:10:05 33° WSW 15:10:53 34° WSW 15:16:02 10° S
Cosmos 2366 rocket 4.0 15:05:29 10° S 15:11:45 85° E 15:15:13 29° N
Meteor 1-12 Rocket 4.4 15:05:52 10° S 15:11:54 78° E 15:15:28 25° NNE
COSMOS 2455 2.8 15:10:02 10° SW 15:15:59 60° WNW 15:17:50 42° N
METEOR-M 4.4 15:16:30 46° W 15:16:30 46° W 15:21:35 10° SSW
NOSS 3-1 (C) 3.5 15:11:42 10° SW 15:16:53 44° W 15:16:53 44° W
Cosmos 1697 Rocket 2.7 15:15:01 10° SSW 15:20:32 55° WNW 15:21:29 49° NW
NOSS 3-1 (A) 3.3 15:15:44 10° SSW 15:22:09 78° SE 15:27:11 10° NE
Cosmos 1953 4.1 15:21:03 10° SSW 15:22:25 19° SW 15:22:25 19° SW
COSMOS 2406 4.4 15:26:25 16° NNE 15:30:25 37° ENE 15:35:39 10° SE
ATLAS 2AS CENTAUR R/B 3.3 15:29:53 23° N 15:34:10 54° ENE 15:41:13 10° SE
Cosmos 1515 Rocket 4.3 15:35:22 35° WSW 15:35:22 35° WSW 15:39:26 10° S
USA 59 Rocket 2.8 15:32:00 10° WSW 15:37:40 21° W 15:37:40 21° W
Okean 3 3.3 15:41:08 51° NW 15:42:00 67° W 15:46:11 10° S
Cosmos 1763 Rocket 3.9 15:39:02 24° N 15:42:13 61° ENE 15:47:30 10° SSE
SL-8 Rocket 4.3 15:37:59 10° SSW 15:44:05 49° W 15:47:02 29° NNW
Cosmos 1486 Rocket 4.0 15:40:35 10° SSW 15:45:55 89° WNW 15:51:14 10° NNE
Cosmos 1777 Rocket 4.1 15:42:05 10° SSW 15:47:24 77° ESE 15:52:37 10° NNE
Cosmos 1733 Rocket 4.5 15:43:36 10° S 15:47:49 39° ESE 15:51:58 10° NNE
Meteor 2-15 4.4 15:42:59 10° SSW 15:49:12 74° W 15:55:11 11° N
Cosmos 2181 Rocket 4.1 15:46:02 29° NNW 15:49:18 61° W 15:55:30 10° S
CZ-2C R/B 2.4 15:46:18 17° N 15:50:16 70° WNW 15:55:29 10° SSW
H-2A R/B 3.7 15:52:15 16° WSW 15:52:15 16° WSW 15:54:21 10° SW
Nadezhda 3 Rocket 4.2 15:46:10 12° N 15:52:00 76° E 15:58:19 10° S
Cosmos 2218 Rocket 4.3 15:48:04 10° SSW 15:54:06 49° W 15:58:01 22° NNW
H-2A R/B 3.9 15:56:31 16° WSW 15:56:31 16° WSW 15:58:09 10° SW
Lacrosse 5 rocket 3.6 15:57:28 10° NNE 15:59:12 13° ENE 16:00:54 10° E
Cosmos 2082 Rocket 2.3 15:56:36 28° NW 15:59:40 65° WSW 16:05:23 10° SSE
Cosmos 44 4.3 15:58:47 23° W 16:00:37 31° SW 16:04:43 10° SSE
Cosmos 2369 3.9 15:55:31 10° SSW 16:01:19 76° ESE 16:07:03 10° NNE
H-2A R/B 2.6 16:06:55 10° S 16:10:25 43° WSW 16:11:47 29° WNW
Cosmos 1354 Rocket 4.3 16:06:17 10° SSW 16:11:36 71° ESE 16:16:49 10° NNE
SL-08 RB Rocket 4.2 16:09:37 22° NNW 16:12:00 38° W 16:16:14 10° SSW
H-2A R/B 3.4 16:08:12 10° NNE 16:12:01 76° ESE 16:15:54 10° S
SL-16 R/B 3.8 16:08:13 10° S 16:13:33 39° ESE 16:18:51 10° NE
USA 267 3.5 16:08:11 10° SE 16:14:46 65° NE 16:20:23 15° NNW
Cosmos 2333 Rocket 4.1 16:10:35 10° S 16:15:49 34° ESE 16:21:01 10° ENE
Cosmos 1821 Rocket 4.3 16:10:06 10° SSW 16:16:15 47° W 16:22:18 10° NNW
Cosmos 2084 Rocket 4.1 16:14:52 23° WNW 16:17:01 41° SW 16:21:02 10° SSE
Spot 2 4.5 16:12:36 10° S 16:17:37 64° WSW 16:21:37 15° NNW
SJ-11-01 4.2 16:13:58 10° N 16:18:41 76° WNW 16:23:28 10° SSW
Cosmos 540 Rocket 3.5 16:18:24 17° NNW 16:22:22 67° WSW 16:27:34 10° SSE
Okean 1-7 3.0 16:29:13 10° NNW 16:33:27 67° W 16:37:42 10° S
JB-3 4.1 16:34:15 10° SSE 16:37:57 88° E 16:41:37 10° NNW
Cosmos 2228 Rocket 3.1 16:35:05 10° NNW 16:39:39 73° W 16:44:17 10° S
Cosmos 990 Rocket 4.0 16:38:19 10° SSW 16:43:30 66° WNW 16:48:38 10° N
Cosmos 2322 Rocket 3.8 16:41:13 10° S 16:46:38 40° ESE 16:52:00 10° NE
Cosmos 1980 Rocket 3.3 16:47:39 10° SW 16:51:51 22° W 16:56:01 10° NNW
Cosmos 1328 4.0 16:51:49 10° NNW 16:55:12 40° WSW 16:58:38 10° S
Cosmos 2237 4.4 16:52:23 10° SW 16:57:56 49° WNW 17:03:25 10° N
Cosmos 1939 Rocket 4.3 17:01:32 10° NW 17:04:09 18° W 17:06:47 10° SW
Aureole 1 Rocket 4.0 17:01:40 10° SSW 17:07:22 80° WNW 17:14:15 10° NNE
Cosmos 2278 3.9 17:02:20 10° SSW 17:08:07 87° ESE 17:13:49 10° NNE
CZ-3 R/B 3.5 17:12:13 10° W 17:30:37 36° NNW 17:37:15 10° NE
